sat.trackr.live / text

‹ back to catalog

STARLINK-1496

NORAD 45780 · 2020-038BC

PAYLOAD ACTIVE UNKNOWN

§ Identity

Operator
Country
US
Launch date
2020-06-13
Launch site
AFETR
Launch vehicle
Mass (kg)
RCS (m²)

Purposes: comms

External: N2YO · Heavens-Above · Gunter

§ Orbital elements

Epoch: 2026-09-20T06:00:02.000160Z

Period
90.80 min
Inclination
53.0377°
Eccentricity
0.0003933
Mean motion
15.85938267 rev/d
Perigee alt
311.1 km
Apogee alt
316.3 km
Semi-major
6,691.8 km
B*
3.1113e-4
RAAN
300.1061°
Arg perigee
3.7611°
Mean anomaly
35.4441°
Rev number
591

§ Raw data

STARLINK-14961 45780U 20038BC  26263.25002315  .00078024  00000+0  31113-3 0  99962 45780  53.0377 300.1061 0003933   3.7611  35.4441 15.85938267  5918

JSON: /api/v1/satellites/45780 · /tle

For live sub-satellite position, see the globe view (requires WebGL).

§ Visibility from observer

Set your observer location to see the next 7 days of passes ≥ 10°. The values pass through the URL so the page stays shareable.

No JS? Fill the form by hand. The geolocation button needs JavaScript.